DELTA 1 DEB

Satellite information

Favourite Embed

Satellite Type and Status

DEBRISIN ORBIT

Key statistics

Satellite DELTA 1 DEB at a glance.

Uptime

18348

Days in orbit

Revolutions

≈ 14.7

Per day

Orbit

SSO

Sun Synchronous Orbit

Inclination

100.0

Latest

Satellite identification and parameters

Extended collection of information and parameters for DELTA 1 DEB.

Object identification

Identified? True

Debris? True

Object name: DELTA 1 DEB

International designator: 1975-052KA

Object number (NORAD): 26036

Object ID (CCSDS): 26036

Country: UNITED STATES OF AMERICA (US)

Current information (Y/N): Y

RCS size: SMALL

Orbital parameters

Period: 97.805 minutes

Inclination: 99.9509 deg

SMA: 7031.795 km

Apoapsis: 702.315 km

Periapsis: 605.006 km

RAAN: 44.3202 deg

Eccentricy: 0.00691925

Argument of periapsis: 208.9542 deg

Mean anomaly: 150.7813 deg

Mean motion: 14.72324084 rev/day

Mean motion (dot): 0.00030289 rev/day2

B* drag term: 0.0046037411 1/REarth

Two-line elements (TLE)

Creation date: Sept. 4, 2025, 10:13 a.m.

Reference frame: TEME

Reference center: EARTH

Epoch: Sept. 4, 2025, 2:15 a.m. UTC

TLE line 0: 0 DELTA 1 DEB

TLE line 1: 1 26036U 75052KA 25247.09383912 .00030289 00000-0 46037-2 0 9995

TLE line 2: 2 26036 99.9509 44.3202 0069192 208.9542 150.7813 14.72324084392174

Live tracking on map

Real-time ground track for satellite DELTA 1 DEB.

In-orbit conjunctions

A list of the most updated potential collisions computed for object DELTA 1 DEB.

Target Orbit TCA Probability of collision Miss distance Type
SAC C SSO 2025-07-16 19:33:23 0.0003046443 697.0 (m) PAYLOAD
CZ-6A DEB LEO 2025-01-19 00:07:14 0.000116561 938.0 (m) DEBRIS
COSMOS 2251 DEB LEO 2024-11-13 08:46:22 0.0004991871 271.0 (m) DEBRIS
COSMOS 968 LEO 2024-06-20 12:08:00 0.0007312791 435.0 (m) PAYLOAD

Associated space launch

Experimental meteorological satellite

DELTA 1 DEB was lifted into orbit during the mission ‘Delta 2910 | Nimbus 6’, on board a Delta 2910 space rocket.

The launch took place on June 12, 1975, 8:12 a.m. from Space Launch Complex 2W.

For more information about the launch, click the button.

Launch to space Delta 2910 | Nimbus 6
Delta 2910 | Nimbus 6

Agency: N/A

Status: Launch Successful

Launch date: June 12, 1975, 8:12 a.m. UTC

Rocket: Delta 2910

Launch pad: Space Launch Complex 2W

Location: Vandenberg SFB, CA, USA

...

Latest news about this satellite

There are no fresh news available about this satellite. Check back as we update our databases every day.


Newsletter sign-up

Weekly statistics, charts and insights to help you stay on top of the space industry.